Location: Newark
(58.9986°N, 38.5006°E)
Time: 13:20:25
(UTC+00:00)

N. Korean satellite - Pass Details

Date: 12 December 2019
Orbit: 454 x 508 km, 97.2° (Epoch: 17 January)

Event Time Altitude Azimuth Distance (km) Brightness Sun altitude
Rises 02:31:24 0° 23° (NNE) 2,565 10.5 -25.7°
Reaches altitude 10° 02:33:54 10° 40° (NE) 1,668 9.7 -25.4°
Maximum altitude 02:36:38 20° 90° (E) 1,142 9.2 -25.1°
Drops below altitude 10° 02:39:20 10° 141° (SE) 1,633 9.8 -24.7°
Sets 02:41:45 0° 158° (SSE) 2,494 10.5 -24.4°
